CZ-6A DEB, 54276

Orbit data source: Space-Track

CZ-6A DEB, 54276 is space debris in SSO originally from a launch on Fri, 11 Nov 2022 UTC launched from the Taiyaun Space Center, China (TSC). Debris objects in space refer to the collection of defunct objects orbiting the Earth. Examples of debris include non-operational satellites, rocket bodies, and fragments generated from explosions, collisions, or faulty payload assembly.

Loading next visibility...
Identifier
54276, 2022-151T
Orbit
SSO
Country
Flag of CNCN / PRC
Related business
Manufacturer
SAST
Mission
Spacecraft
Bus & Motor
Unknown
Mass
Unknown
Launch date (UTC)
2022-11-11 (3 years ago)
Launch vehicle
Unknown
Launch site
Taiyaun Space Center, China (TSC)
Object type
Payload
Rocket body
Debris
Shape & HBR
Unknown shape, 0.1 m
Radar Cross Section
Small (<0.1 m²)

Expand to show TLE details & history
Last TLE update: 1 day ago

TLE from 1 day ago
0 CZ-6A DEB
1 54276U 22151T   25354.33417402  .00000069  00000-0  97586-4 0  9992
2 54276  98.8572 287.5765 0204557 291.9801  65.9727 13.76210048155388
Epoch: 2025-12-20T08:01Z
TLE epoch observation values (Epoch: 2025-12-20T08:01:12.635Z)
Latitude
-0.00005°
Longitude
78.11139°
Altitude
921.536 km
Speed
7.421 km/s
True Right ascension
19h 10m 18s
True Declination
0° 00' 00"
Sunlit
Object was in daylight at epoch
Visualization orbit readout
Latitude
Unknown
Longitude
Unknown
Altitude
Unknown
Speed
Unknown
Apparent Right ascension
Unknown
Apparent Declination
Unknown
Sunlit
N/A
Visualization observer readout
Local Sidereal Time
13:58:42
Azimuth
Unknown
Elevation
Unknown
Doppler factor
Unknown
Orbital elements
Apogee altitude
1,124.988 km
Perigee altitude
824.178 km
Semi-major axis
7,352.72 km
Eccentricity
0.02046
Inclination
98.8572°
RAAN
287.5765°
Arg. of periapsis
291.9801°
True anomaly
68.13564°
Mean anomaly
65.9727°
Eccentric anomaly
67.05197°
Mean motion
3.44248 °/min
Orbital period
104.58 mins
BSTAR
0.000097586
Loading maneuver chart data...
Computing Atmospheric mass density...
Loading historical data...
Loading historical data...
Loading historical data...
Loading historical data...
Loading historical data...
Loading historical data...
Loading historical data...

Documentation

Showing up to 5 results
|